Voltar ao catálogo

DELTA 1 DEB

AtivoPO
NORAD 21677·DEBRIS·🇺🇸 United States

Lançado Jun 12, 1975 de Vandenberg Space Force Base

Loading…

Próximas Passagens (próximas 24 horas)

TLE

AtualizadoSource: Space-Track

Época: Sep 14, 2026, 07:15 UTC

1 21677U 75052JD  26257.30266633  .00000019  00000-0  17642-3 0  9996
2 21677  99.9302  16.9426 0477581 349.9152  34.6987 12.71925889639344

Acompanhe DELTA 1 DEB em tempo real com AllMySat

Download on the App Store